Regional Weather Roundup
Issued by NWS

Home | Current Version | Previous Version | Graphics & Text | Print | Product List | Glossary On
Versions: 1 2 3 4 5 6 7 8 9 10 11 12 13 14 15 16 17 18 19 20 21 22 23 24 25 26 27 28 29 30 31 32 33 34 35 36 37 38 39 40 41 42 43 44 45 46 47 48 49 50
000
ASUS43 KLMK 250210
RWRKY
KENTUCKY REGIONAL WEATHER ROUNDUP
NATIONAL WEATHER SERVICE LOUISVILLE KY
1000 PM EDT SUN MAY 24 2015

NOTE "FAIR" INDICATES FEW OR NO CLOUDS BELOW 12,000 FEET
WITH NO SIGNIFICANT WEATHER AND/OR OBSTRUCTIONS TO VISIBILITY.

KYZ001>023-026-027-061>063-070>075-250300-
WESTERN AND SOUTH CENTRAL KENTUCKY

CITY           SKY/WX    TMP DP  RH WIND       PRES   REMARKS
PADUCAH        MOCLDY    77  68  73 S14G23    29.98S
HENDERSON      MOCLDY    72  64  78 SE8       30.01S
OWENSBORO      MOCLDY    78  65  64 S12       30.05R
HOPKINSVILLE   MOCLDY    79  66  64 S14G21    30.06R
BOWLING GREEN  MOCLDY    77  61  57 SE8       30.10S
GLASGOW        MOCLDY    75  58  55 S7        30.12F
$$

KYZ024-025-028>034-038-045-046-053-250300-
NORTH CENTRAL KENTUCKY

CITY           SKY/WX    TMP DP  RH WIND       PRES   REMARKS
LOUISVILLE/SDF PTCLDY    78  58  49 SE12      30.09S
LOUISVILLE/LOU PTCLDY    78  57  48 SE6       30.10S
FORT KNOX      PTCLDY    74  61  62 SE7       30.09S
$$

KYZ035>037-039>044-047>052-055>060-089>105-250300-
NORTHEAST KENTUCKY

CITY           SKY/WX    TMP DP  RH WIND       PRES   REMARKS
LEXINGTON      CLEAR     72  53  51 SE7       30.16R
COVINGTON      PTCLDY    70  53  54 S8        30.12F
FRANKFORT      CLEAR     74  53  48 S7        30.13S
$$

KYZ054-064>069-076>088-106>120-250300-
SOUTHEAST KENTUCKY

CITY           SKY/WX    TMP DP  RH WIND       PRES   REMARKS
JACKSON        CLEAR     73  49  42 CALM      30.20R
LONDON         CLEAR     72  49  44 CALM      30.20R
SOMERSET       CLEAR     68  54  60 SE3       30.18S
MIDDLESBORO    PTCLDY    67  56  68 CALM      30.22R
MONTICELLO     CLEAR     73  58  59 S6        30.19F
$$



USA.gov is the U.S. government's official web portal to all federal, state and local government web resources and services.